New Orleans Lakefront, LA

4:43 AM CDT on June 29, 2017 (GMT -0500)
Lakefront

Weather History for KNEW - April, 2014

Change the Weather History Date:

Friday, April 11, 2014

  Actual Average Record
Temperature  
Mean Temperature 67 °F 68 °F  
Max Temperature 78 °F 77 °F 87 °F (2001)
Min Temperature 56 °F 59 °F 35 °F (1973)
Degree Days  
Heating Degree Days 0 1  
Month to date heating degree days 13 21  
Since 1 July heating degree days 1553 1266  
Cooling Degree Days 2 4  
Month to date cooling degree days 38 41  
Year to date cooling degree days 83 141  
Growing Degree Days 18 (Base 50)    
Moisture  
Dew Point 60 °F    
Average Humidity 72    
Maximum Humidity 93    
Minimum Humidity 50    
Precipitation  
Precipitation 0.00 in 0.15 in 2.59 in (2004)
Month to date precipitation 0.80 1.64  
Year to date precipitation 15.08 16.64  
Snow  
Snow 0.00 in - - ()
Month to date snowfall 0.0  
Since 1 July snowfall T  
Snow Depth 0.00 in    
Sea Level Pressure  
Sea Level Pressure 30.14 in    
Wind  
Wind Speed 7 mph (SSE)    
Max Wind Speed 16 mph    
Max Gust Speed 21 mph    
Visibility 10 miles    
Events      
T = Trace of Precipitation, MM = Missing Value Source: NWS Daily Summary

Daily Weather History Graph

Daily Weather History Graph

Search for Another Location

Airport or City:

Trip Planner

Search our weather history database for the weather conditions in past years. The results will help you decide how hot, cold, wet, or windy it might be!

Date:

Astronomy

Apr. 11, 2014 Rise Set
Actual Time 6:37 AM CDT 7:24 PM CDT
Civil Twilight 6:13 AM CDT 7:49 PM CDT
Nautical Twilight 5:44 AM CDT 8:18 PM CDT
Astronomical Twilight 5:15 AM CDT 8:47 PM CDT
Moon 4:19 PM CDT (4/11) 4:17 AM CDT (4/11)
Length of Visible Light 13h 36m
Length of Day
12h 47m
Waxing Gibbous, 87% of the Moon is Illuminated
Apr 11
Waxing Gibbous
Apr 15
Full
Apr 22
Last Quarter
Apr 29
New
May 6
First Quarter

Hourly Weather History & Observations

Time (CDT) Temp. Dew Point Humidity Pressure Visibility Wind Dir Wind Speed Gust Speed Precip Events Conditions
12:53 AM 59.0 °F 55.0 °F 87% 30.16 in 10.0 mi SSE 4.6 mph - N/A   Clear
1:53 AM 60.1 °F 55.9 °F 86% 30.15 in 10.0 mi SE 3.5 mph - N/A   Clear
2:53 AM 59.0 °F 55.9 °F 90% 30.12 in 10.0 mi SE 5.8 mph - N/A   Clear
3:53 AM 61.0 °F 57.0 °F 87% 30.12 in 10.0 mi SE 5.8 mph - N/A   Scattered Clouds
4:53 AM 61.0 °F 57.0 °F 87% 30.12 in 10.0 mi SE 5.8 mph - N/A   Partly Cloudy
5:53 AM 61.0 °F 57.9 °F 90% 30.15 in 8.0 mi ESE 3.5 mph - N/A   Mostly Cloudy
6:53 AM 61.0 °F 59.0 °F 93% 30.16 in 6.0 mi ESE 5.8 mph - N/A   Scattered Clouds
7:53 AM 64.0 °F 61.0 °F 90% 30.18 in 8.0 mi SE 6.9 mph - N/A   Scattered Clouds
8:53 AM 66.0 °F 61.0 °F 84% 30.19 in 10.0 mi SE 8.1 mph - N/A   Mostly Cloudy
9:53 AM 71.1 °F 61.0 °F 70% 30.19 in 10.0 mi SSE 12.7 mph - N/A   Partly Cloudy
10:53 AM 73.0 °F 60.1 °F 64% 30.20 in 10.0 mi SSE 10.4 mph - N/A   Scattered Clouds
11:53 AM 73.9 °F 60.1 °F 62% 30.19 in 10.0 mi SSE 11.5 mph - N/A   Overcast
12:53 PM 73.9 °F 59.0 °F 59% 30.18 in 10.0 mi Variable 6.9 mph 18.4 mph N/A   Mostly Cloudy
1:53 PM 73.9 °F 57.9 °F 57% 30.16 in 10.0 mi SSW 5.8 mph - N/A   Mostly Cloudy
2:53 PM 75.9 °F 57.9 °F 54% 30.12 in 10.0 mi SE 4.6 mph - N/A   Overcast
3:53 PM 77.0 °F 57.9 °F 52% 30.10 in 10.0 mi South 15.0 mph - N/A   Partly Cloudy
4:53 PM 75.9 °F 57.9 °F 54% 30.09 in 10.0 mi SSE 12.7 mph - N/A   Clear
5:53 PM 73.9 °F 59.0 °F 59% 30.09 in 10.0 mi South 13.8 mph - N/A   Clear
6:53 PM 72.0 °F 62.1 °F 71% 30.09 in 10.0 mi SE 13.8 mph - N/A   Clear
7:53 PM 70.0 °F 63.0 °F 78% 30.10 in 10.0 mi SE 10.4 mph - N/A   Clear
8:53 PM 68.0 °F 64.0 °F 87% 30.11 in 10.0 mi SE 8.1 mph - N/A   Clear
9:53 PM 68.0 °F 64.9 °F 90% 30.12 in 10.0 mi SE 10.4 mph - N/A   Scattered Clouds
10:53 PM 66.9 °F 64.0 °F 90% 30.12 in 10.0 mi SSE 8.1 mph - N/A   Partly Cloudy
11:53 PM 66.9 °F 64.0 °F 90% 30.12 in 10.0 mi SSE 8.1 mph - N/A   Clear